William Baker Oliver Lake Weather Center

Moon Phase Calendar



William Baker Oliver Lake Water Level
Online Cameras

 


      

Current Conditions in Tuscaloosa
9/16/2021 10:09:10 PM

75°F
Feels Like 77
Clear
Humidity
94%
Pressure
30"
Wind
7.3 mph (E)
Dew Point
74°F
UV Index
0/10 (Low)
Visibility
6 mi

Hourly Forecast

Date & Time Thu, Sep 16
10:00 PM
Thu, Sep 16
11:00 PM
Fri, Sep 17
12:00 AM
Fri, Sep 17
1:00 AM
Fri, Sep 17
2:00 AM
Fri, Sep 17
3:00 AM
Fri, Sep 17
4:00 AM
Fri, Sep 17
5:00 AM
Fri, Sep 17
6:00 AM
Fri, Sep 17
7:00 AM
Fri, Sep 17
8:00 AM
Fri, Sep 17
9:00 AM
Fri, Sep 17
10:00 AM
Fri, Sep 17
11:00 AM
Fri, Sep 17
12:00 PM
Fri, Sep 17
1:00 PM
Fri, Sep 17
2:00 PM
Fri, Sep 17
3:00 PM
Fri, Sep 17
4:00 PM
Fri, Sep 17
5:00 PM
Fri, Sep 17
6:00 PM
Fri, Sep 17
7:00 PM
Fri, Sep 17
8:00 PM
Fri, Sep 17
9:00 PM
Fri, Sep 17
10:00 PM
Fri, Sep 17
11:00 PM
Sat, Sep 18
12:00 AM
Sat, Sep 18
1:00 AM
Sat, Sep 18
2:00 AM
Sat, Sep 18
3:00 AM
Sat, Sep 18
4:00 AM
Sat, Sep 18
5:00 AM
Sat, Sep 18
6:00 AM
Sat, Sep 18
7:00 AM
Sat, Sep 18
8:00 AM
Sat, Sep 18
9:00 AM
Sat, Sep 18
10:00 AM
Sat, Sep 18
11:00 AM
Sat, Sep 18
12:00 PM
Sat, Sep 18
1:00 PM
Sat, Sep 18
2:00 PM
Sat, Sep 18
3:00 PM
Sat, Sep 18
4:00 PM
Sat, Sep 18
5:00 PM
Sat, Sep 18
6:00 PM
Sat, Sep 18
7:00 PM
Sat, Sep 18
8:00 PM
Sat, Sep 18
9:00 PM
Condition
Clear

Clear

Clouds

Rain

Clouds

Clouds

Clouds

Clouds

Clouds

Clouds

Rain

Rain

Clouds

Clouds

Clouds

Rain

Rain

Rain

Rain

Rain

Rain

Clouds

Clouds

Clouds

Clouds

Clouds

Clouds

Clouds

Rain

Rain

Rain

Rain

Rain

Rain

Rain

Rain

Rain

Rain

Rain

Rain

Clouds

Clouds

Clouds

Clouds

Clouds

Clouds

Clouds

Clouds
Temperature 75°F75°F74°F73°F72°F72°F72°F72°F72°F72°F72°F74°F75°F78°F83°F83°F84°F82°F80°F78°F75°F73°F72°F72°F72°F72°F72°F72°F72°F71°F71°F71°F71°F71°F71°F71°F71°F72°F72°F72°F73°F77°F79°F79°F77°F73°F72°F71°F
Feels Like 77°F76°F76°F75°F74°F73°F73°F73°F73°F74°F74°F75°F77°F80°F88°F89°F90°F88°F80°F79°F77°F75°F74°F74°F74°F74°F74°F74°F73°F73°F73°F73°F73°F72°F72°F72°F73°F73°F73°F73°F75°F79°F79°F79°F78°F75°F73°F72°F
Cloudiness 8%9%14%21%59%77%84%88%91%92%100%99%99%99%97%88%30%34%40%50%60%67%100%100%100%100%100%100%100%100%100%100%100%100%100%100%100%100%100%100%99%91%80%74%78%82%99%90%
Visibility 6 mi6 mi6 mi6 mi6 mi6 mi6 mi6 mi6 mi6 mi6 mi6 mi6 mi6 mi6 mi6 mi6 mi6 mi6 mi6 mi6 mi6 mi6 mi6 mi6 mi6 mi6 mi6 mi6 mi4 mi6 mi6 mi6 mi6 mi4 mi5 mi6 mi4 mi6 mi6 mi6 mi6 mi6 mi6 mi6 mi6 mi6 mi6 mi
Precipitation 26%26%30%29%0%0%0%0%0%0%35%43%46%47%72%100%99%100%100%100%100%80%29%25%25%25%26%39%64%73%77%88%95%96%78%80%80%80%76%77%38%14%14%6%2%6%41%34%
Humidity 94%95%95%96%97%97%95%95%96%95%95%94%91%83%70%72%68%77%85%90%93%95%96%97%97%97%97%98%99%99%99%99%99%99%99%99%98%98%97%97%95%84%75%75%82%91%95%96%
Dew Point 74°F73°F73°F72°F71°F70°F70°F70°F70°F70°F71°F71°F72°F72°F72°F72°F72°F74°F75°F74°F73°F71°F71°F71°F71°F71°F71°F71°F71°F71°F70°F70°F70°F70°F70°F70°F70°F70°F71°F71°F71°F72°F70°F70°F71°F70°F70°F69°F
Pressure 30"30"30"29.97"29.97"29.97"29.97"29.97"30"30.03"30.03"30.06"30.06"30.06"30.06"30.03"30"30"30"30"30"30.03"30.03"30.03"30.03"30.03"30.03"30.03"30.03"30.03"30.03"30.03"30.03"30.06"30.09"30.09"30.09"30.12"30.12"30.09"30.06"30.03"30.03"30.03"30.03"30.03"30.06"30.06"
Wind Speed 7.3 mph7.8 mph7.5 mph7.2 mph7.1 mph7 mph6.8 mph6.3 mph6.1 mph6.1 mph6.1 mph7 mph7.1 mph6.9 mph7.4 mph7.6 mph6.8 mph7.8 mph6.4 mph6.6 mph6.8 mph5.2 mph4.7 mph4.7 mph4.5 mph4.6 mph4.4 mph4.6 mph4.1 mph4.2 mph3 mph3.5 mph3.6 mph3 mph3.6 mph4.3 mph4.4 mph3.5 mph2.1 mph2.1 mph3 mph4.3 mph4.5 mph4.8 mph5.1 mph4.6 mph4.3 mph3.8 mph
Wind
Direction
97°
E
105°
ESE
110°
ESE
110°
ESE
107°
ESE
106°
ESE
115°
ESE
121°
ESE
120°
ESE
126°
SE
124°
SE
124°
SE
134°
SE
143°
SE
151°
SSE
165°
SSE
160°
SSE
163°
SSE
168°
SSE
164°
SSE
145°
SE
130°
SE
114°
ESE
118°
ESE
119°
ESE
117°
ESE
127°
SE
140°
SE
142°
SE
150°
SSE
157°
SSE
160°
SSE
138°
SE
137°
SE
150°
SSE
149°
SSE
141°
SE
135°
SE
113°
ESE
101°
E
114°
ESE
125°
SE
129°
SE
121°
ESE
117°
ESE
114°
ESE
110°
ESE
107°
ESE

Daily Forecast

Date High Low Precip. Humidity
Today
Sep 16

Rain
79 °F
69 °F
89%
97%
Friday
Sep 17

Rain
84 °F
72 °F
100%
70%
Saturday
Sep 18

Rain
79 °F
71 °F
96%
97%
Sunday
Sep 19

Rain
83 °F
70 °F
76%
63%
Monday
Sep 20

Clouds
84 °F
70 °F
12%
62%
Tuesday
Sep 21

Rain
85 °F
71 °F
100%
71%
Wednesday
Sep 22

Clouds
79 °F
64 °F
31%
84%
Thursday
Sep 23

Clouds
79 °F
55 °F
0%
55%
Friday
Sep 24

Rain
82 °F
62 °F
21%
57%
Saturday
Sep 25

Rain
77 °F
65 °F
100%
68%
Sunday
Sep 26

Clouds
84 °F
64 °F
0%
47%
Monday
Sep 27

Clear
84 °F
64 °F
0%
35%
Tuesday
Sep 28

Clear
82 °F
57 °F
0%
36%
Wednesday
Sep 29

Clear
86 °F
61 °F
0%
40%
Thursday
Sep 30

Clear
86 °F
65 °F
0%
35%
Friday
Oct 1

Clouds
85 °F
64 °F
0%
40%

Temperature 8-14 Day Outlook



Precipitation 8-14 Day Outlook




Quick Links
William Baker Oliver Lake News
William Baker Oliver Lake Photos
William Baker Oliver Lake Videos




About Us
Contact Us
Site Map
Search Site
Advertise With Us
   
Oliver.LakesOnline.com
THE WILLIAM BAKER OLIVER LAKE WEBSITE

Copyright 2021, Lakes Online
Privacy    |    Legal